Location: Bemmer
(51.5498°N, 5.6249°E)
Time: 16:33:54
(UTC+00:00)

Cosmos 2333 Rocket - Pass Details

Date: 03 March 2021
Orbit: 837 x 864 km, 70.8° (Epoch: 13 April)

Event Time Altitude Azimuth Distance (km) Brightness Sun altitude
Rises 18:48:17 0° 174° (S) 3,390 5.2 -14.2°
Reaches altitude 10° 18:50:59 10° 164° (SSE) 2,463 4.4 -14.7°
Maximum altitude 18:55:48 30° 105° (ESE) 1,489 2.9 -15.4°
Drops below altitude 10° 19:00:41 10° 47° (NE) 2,494 4.3 -16.1°
Sets 19:03:25 0° 37° (NE) 3,440 5.1 -16.6°
